| time (UTC) | temp F | wind direction | speed MPH | gust MPH | rain 1hr in | rain 24hr in | rain mn in | humidity % | barometer mb |
| 20260508063318 | 40 | 125 | 0.0 | 1.0 | 0.00 | 0.00 | 0.00 | 81 | 1016.9 |
| 20260508062742 | 40 | 34 | 2.0 | 3.0 | 0.00 | 0.00 | 0.00 | 82 | 1016.9 |
| 20260508062146 | 41 | 11 | 1.0 | 2.0 | 0.00 | 0.00 | 0.00 | 80 | 1016.5 |
| 20260508061530 | 41 | 129 | 2.0 | 3.0 | 0.00 | 0.00 | 0.00 | 85 | 1016.5 |
| 20260508060909 | 41 | 122 | 0.0 | 0.0 | 0.00 | 0.00 | 0.00 | 80 | 1016.5 |
| 20260508060341 | 41 | 122 | 2.0 | 2.0 | 0.00 | 0.00 | 0.00 | 80 | 1016.5 |
| 20260508055751 | 41 | 123 | 0.0 | 0.0 | 0.00 | 0.00 | 0.00 | 78 | 1016.9 |
| 20260508055141 | 41 | 123 | 0.0 | 0.0 | 0.00 | 0.00 | 0.00 | 78 | 1016.5 |
| 20260508054544 | 42 | 99 | 0.0 | 0.0 | 0.00 | 0.00 | 0.00 | 74 | 1016.9 |
| 20260508052737 | 42 | 37 | 0.0 | 2.0 | 0.00 | 0.00 | 0.00 | 72 | 1016.9 |
| 20260508052132 | 42 | 15 | 2.0 | 2.0 | 0.00 | 0.00 | 0.00 | 71 | 1016.9 |
| 20260508051526 | 43 | 14 | 0.0 | 1.0 | 0.00 | 0.00 | 0.00 | 69 | 1016.9 |
| 20260508050945 | 44 | 101 | 0.0 | 2.0 | 0.00 | 0.00 | 0.00 | 69 | 1016.9 |
| 20260508050309 | 45 | 48 | 2.0 | 4.0 | 0.00 | 0.00 | 0.00 | 63 | 1016.9 |
| 20260508045724 | 43 | 41 | 0.0 | 1.0 | 0.00 | 0.00 | 0.00 | 70 | 1016.9 |
| 20260508045127 | 43 | 26 | 0.0 | 1.0 | 0.00 | 0.00 | 0.00 | 68 | 1016.9 |
| 20260508044542 | 43 | 46 | 2.0 | 2.0 | 0.00 | 0.00 | 0.00 | 67 | 1016.9 |
| 20260508043936 | 44 | 58 | 0.0 | 1.0 | 0.00 | 0.00 | 0.00 | 66 | 1016.9 |
| 20260508043347 | 44 | 45 | 0.0 | 1.0 | 0.00 | 0.00 | 0.00 | 65 | 1016.5 |
| 20260508042723 | 44 | 48 | 0.0 | 1.0 | 0.00 | 0.00 | 0.00 | 64 | 1016.9 |
| 20260508042141 | 46 | 16 | 0.0 | 1.0 | 0.00 | 0.00 | 0.00 | 61 | 1016.9 |
| 20260508041532 | 47 | 64 | 0.0 | 1.0 | 0.00 | 0.00 | 0.00 | 60 | 1016.9 |
| 20260508040318 | 47 | 138 | 0.0 | 2.0 | 0.00 | 0.00 | 0.00 | 60 | 1016.5 |
| 20260508035120 | 47 | 105 | 1.0 | 1.0 | 0.00 | 0.00 | 0.00 | 61 | 1016.5 |
| 20260508034526 | 48 | 138 | 0.0 | 1.0 | 0.00 | 0.00 | 0.00 | 60 | 1016.5 |
| 20260508033916 | 47 | 103 | 0.0 | 1.0 | 0.00 | 0.00 | 0.00 | 59 | 1016.5 |
| 20260508033321 | 48 | 309 | 0.0 | 0.0 | 0.00 | 0.00 | 0.00 | 58 | 1016.5 |
| 20260508032734 | 48 | 309 | 0.0 | 0.0 | 0.00 | 0.00 | 0.00 | 57 | 1016.5 |
| 20260508032146 | 49 | 309 | 0.0 | 0.0 | 0.00 | 0.00 | 0.00 | 57 | 1016.5 |
| 20260508031526 | 49 | 288 | 0.0 | 1.0 | 0.00 | 0.00 | 0.00 | 56 | 1016.5 |
| 20260508030931 | 49 | 275 | 0.0 | 0.0 | 0.00 | 0.00 | 0.00 | 56 | 1016.5 |
| 20260508030311 | 50 | 286 | 1.0 | 1.0 | 0.00 | 0.00 | 0.00 | 57 | 1016.5 |
| 20260508025719 | 50 | 297 | 0.0 | 2.0 | 0.00 | 0.00 | 0.00 | 55 | 1016.5 |
| 20260508025114 | 50 | 297 | 0.0 | 2.0 | 0.00 | 0.00 | 0.00 | 56 | 1016.5 |
| 20260508024525 | 50 | 287 | 1.0 | 2.0 | 0.00 | 0.00 | 0.00 | 55 | 1016.2 |
| 20260508023946 | 50 | 304 | 2.0 | 2.0 | 0.00 | 0.00 | 0.00 | 56 | 1016.5 |
| 20260508023341 | 50 | 292 | 2.0 | 2.0 | 0.00 | 0.00 | 0.00 | 56 | 1016.2 |
| 20260508022723 | 50 | 276 | 1.0 | 2.0 | 0.00 | 0.00 | 0.00 | 56 | 1016.2 |
| 20260508021515 | 50 | 287 | 2.0 | 2.0 | 0.00 | 0.00 | 0.00 | 55 | 1015.9 |
| 20260508020945 | 51 | 283 | 2.0 | 2.0 | 0.00 | 0.00 | 0.00 | 54 | 1015.9 |
| 20260508020349 | 51 | 301 | 2.0 | 3.0 | 0.00 | 0.00 | 0.00 | 55 | 1016.2 |
| 20260508015738 | 51 | 293 | 2.0 | 3.0 | 0.00 | 0.00 | 0.00 | 56 | 1016.2 |
| 20260508015145 | 51 | 289 | 3.0 | 3.0 | 0.00 | 0.00 | 0.00 | 54 | 1015.9 |
| 20260508014517 | 51 | 300 | 2.0 | 2.0 | 0.00 | 0.00 | 0.00 | 53 | 1016.2 |
| 20260508012725 | 52 | 276 | 2.0 | 3.0 | 0.00 | 0.00 | 0.00 | 51 | 1015.5 |
| 20260508011528 | 52 | 262 | 1.0 | 3.0 | 0.00 | 0.00 | 0.00 | 50 | 1015.5 |
| 20260508010935 | 53 | 275 | 2.0 | 3.0 | 0.00 | 0.00 | 0.00 | 49 | 1015.5 |
| 20260508010349 | 53 | 283 | 3.0 | 4.0 | 0.00 | 0.00 | 0.00 | 48 | 1015.2 |
| 20260508005736 | 53 | 277 | 2.0 | 3.0 | 0.00 | 0.00 | 0.00 | 47 | 1015.5 |
| 20260508003908 | 54 | 269 | 2.0 | 5.0 | 0.00 | 0.00 | 0.00 | 46 | 1015.2 |
| 20260508003340 | 54 | 279 | 4.0 | 4.0 | 0.00 | 0.00 | 0.00 | 44 | 1015.2 |
| 20260508002734 | 55 | 235 | 2.0 | 3.0 | 0.00 | 0.00 | 0.00 | 44 | 1015.2 |
| 20260508002110 | 55 | 264 | 2.0 | 4.0 | 0.00 | 0.00 | 0.00 | 43 | 1014.9 |
| 20260508001532 | 56 | 299 | 6.0 | 9.0 | 0.00 | 0.00 | 0.00 | 42 | 1014.9 |
| 20260508000949 | 55 | 275 | 4.0 | 6.0 | 0.00 | 0.00 | 0.00 | 42 | 1014.5 |
| 20260508000335 | 56 | 262 | 5.0 | 7.0 | 0.00 | 0.00 | 0.00 | 41 | 1014.5 |
| 20260507235747 | 57 | 301 | 6.0 | 10.0 | 0.00 | 0.00 | 0.00 | 40 | 1014.5 |
| 20260507235119 | 57 | 303 | 8.0 | 10.0 | 0.00 | 0.00 | 0.00 | 40 | 1014.5 |
| 20260507234551 | 57 | 313 | 3.0 | 6.0 | 0.00 | 0.00 | 0.00 | 40 | 1014.5 |
| 20260507233938 | 58 | 303 | 6.0 | 12.0 | 0.00 | 0.00 | 0.00 | 39 | 1014.5 |
| 20260507233347 | 58 | 299 | 7.0 | 9.0 | 0.00 | 0.00 | 0.00 | 40 | 1014.5 |
| 20260507231535 | 58 | 292 | 4.0 | 4.0 | 0.00 | 0.00 | 0.00 | 43 | 1014.2 |
| 20260507225744 | 60 | 256 | 3.0 | 6.0 | 0.00 | 0.00 | 0.00 | 38 | 1014.2 |
| 20260507225120 | 60 | 257 | 3.0 | 6.0 | 0.00 | 0.00 | 0.00 | 38 | 1013.8 |
| 20260507224527 | 60 | 248 | 3.0 | 8.0 | 0.00 | 0.00 | 0.00 | 36 | 1013.8 |
| 20260507223918 | 60 | 239 | 6.0 | 6.0 | 0.00 | 0.00 | 0.00 | 41 | 1013.8 |
| 20260507223338 | 60 | 256 | 6.0 | 6.0 | 0.00 | 0.00 | 0.00 | 38 | 1013.8 |
| 20260507222719 | 60 | 261 | 4.0 | 11.0 | 0.00 | 0.00 | 0.00 | 37 | 1013.8 |
| 20260507221516 | 60 | 262 | 5.0 | 10.0 | 0.00 | 0.00 | 0.00 | 36 | 1013.8 |
| 20260507220312 | 60 | 193 | 7.0 | 12.0 | 0.00 | 0.00 | 0.00 | 35 | 1013.8 |
| 20260507215738 | 60 | 258 | 6.0 | 12.0 | 0.00 | 0.00 | 0.00 | 37 | 1013.5 |
| 20260507215144 | 61 | 267 | 5.0 | 7.0 | 0.00 | 0.00 | 0.00 | 36 | 1013.5 |
| 20260507213944 | 61 | 260 | 3.0 | 6.0 | 0.00 | 0.00 | 0.00 | 38 | 1013.2 |
| 20260507212737 | 62 | 268 | 3.0 | 7.0 | 0.00 | 0.00 | 0.00 | 38 | 1013.2 |
| 20260507211532 | 61 | 278 | 8.0 | 9.0 | 0.00 | 0.00 | 0.00 | 40 | 1012.8 |
| 20260507210928 | 62 | 179 | 6.0 | 13.0 | 0.00 | 0.00 | 0.00 | 41 | 1012.8 |
| 20260507210344 | 62 | 270 | 4.0 | 8.0 | 0.00 | 0.00 | 0.00 | 36 | 1012.8 |
| 20260507204547 | 63 | 265 | 3.0 | 5.0 | 0.00 | 0.00 | 0.00 | 38 | 1012.8 |
| 20260507202737 | 63 | 238 | 1.0 | 5.0 | 0.00 | 0.00 | 0.00 | 38 | 1013.2 |
| 20260507202152 | 62 | 291 | 4.0 | 8.0 | 0.00 | 0.00 | 0.00 | 38 | 1012.8 |
| 20260507201538 | 62 | 267 | 2.0 | 10.0 | 0.00 | 0.00 | 0.00 | 42 | 1012.8 |
| 20260507200938 | 61 | 282 | 5.0 | 7.0 | 0.00 | 0.00 | 0.00 | 44 | 1013.2 |
| 20260507195752 | 59 | 286 | 4.0 | 6.0 | 0.00 | 0.00 | 0.00 | 43 | 1013.2 |
| 20260507195151 | 58 | 260 | 2.0 | 5.0 | 0.00 | 0.00 | 0.00 | 43 | 1013.5 |
| 20260507194514 | 59 | 284 | 3.0 | 6.0 | 0.00 | 0.00 | 0.00 | 46 | 1013.5 |
| 20260507193951 | 60 | 284 | 5.0 | 5.0 | 0.00 | 0.00 | 0.00 | 45 | 1013.8 |
| 20260507192732 | 59 | 251 | 2.0 | 6.0 | 0.00 | 0.00 | 0.00 | 45 | 1013.8 |
| 20260507192146 | 60 | 271 | 5.0 | 6.0 | 0.00 | 0.00 | 0.00 | 43 | 1013.8 |
| 20260507191535 | 60 | 278 | 5.0 | 6.0 | 0.00 | 0.00 | 0.00 | 43 | 1013.8 |
| 20260507190936 | 60 | 241 | 5.0 | 6.0 | 0.00 | 0.00 | 0.00 | 47 | 1013.8 |
| 20260507185724 | 61 | 280 | 3.0 | 7.0 | 0.00 | 0.00 | 0.00 | 45 | 1013.8 |
| 20260507185150 | 60 | 264 | 6.0 | 8.0 | 0.00 | 0.00 | 0.00 | 43 | 1013.8 |
| 20260507184549 | 61 | 318 | 2.0 | 9.0 | 0.00 | 0.00 | 0.00 | 43 | 1013.8 |
| 20260507183951 | 61 | 255 | 2.0 | 12.0 | 0.00 | 0.00 | 0.00 | 42 | 1013.8 |
| 20260507183308 | 61 | 210 | 8.0 | 14.0 | 0.00 | 0.00 | 0.00 | 44 | 1013.8 |
| 20260507182714 | 62 | 206 | 6.0 | 7.0 | 0.00 | 0.00 | 0.00 | 49 | 1013.8 |
| 20260507182150 | 60 | 283 | 2.0 | 4.0 | 0.00 | 0.00 | 0.00 | 45 | 1013.8 |
| 20260507181510 | 59 | 264 | 4.0 | 8.0 | 0.00 | 0.00 | 0.00 | 46 | 1013.8 |
| 20260507180928 | 60 | 297 | 7.0 | 9.0 | 0.00 | 0.00 | 0.00 | 46 | 1013.8 |
| 20260507180324 | 59 | 269 | 5.0 | 5.0 | 0.00 | 0.00 | 0.00 | 49 | 1014.2 |
| 20260507174520 | 57 | 292 | 6.0 | 6.0 | 0.00 | 0.00 | 0.00 | 52 | 1014.2 |
| 20260507173945 | 57 | 307 | 4.0 | 4.0 | 0.00 | 0.00 | 0.00 | 55 | 1014.2 |
| 20260507172732 | 58 | 270 | 6.0 | 7.0 | 0.00 | 0.00 | 0.00 | 52 | 1014.5 |
| 20260507172129 | 59 | 294 | 7.0 | 8.0 | 0.00 | 0.00 | 0.00 | 50 | 1014.5 |
| 20260507170911 | 59 | 73 | 5.0 | 6.0 | 0.00 | 0.00 | 0.00 | 45 | 1014.5 |
| 20260507170321 | 60 | 310 | 6.0 | 8.0 | 0.00 | 0.00 | 0.00 | 49 | 1014.5 |
| 20260507165750 | 59 | 237 | 6.0 | 6.0 | 0.00 | 0.00 | 0.00 | 48 | 1014.5 |
| 20260507165135 | 58 | 308 | 1.0 | 7.0 | 0.00 | 0.00 | 0.00 | 52 | 1014.5 |
| 20260507163923 | 58 | 185 | 10.0 | 12.0 | 0.00 | 0.00 | 0.00 | 51 | 1014.9 |
| 20260507162722 | 58 | 216 | 3.0 | 10.0 | 0.00 | 0.00 | 0.00 | 49 | 1014.9 |
| 20260507162152 | 59 | 195 | 7.0 | 9.0 | 0.00 | 0.00 | 0.00 | 49 | 1014.5 |
| 20260507161555 | 58 | 275 | 2.0 | 7.0 | 0.00 | 0.00 | 0.00 | 50 | 1014.9 |
| 20260507160923 | 57 | 299 | 5.0 | 6.0 | 0.00 | 0.00 | 0.00 | 51 | 1014.9 |
| 20260507160346 | 56 | 317 | 3.0 | 3.0 | 0.00 | 0.00 | 0.00 | 53 | 1014.9 |
| 20260507155731 | 58 | 295 | 7.0 | 8.0 | 0.00 | 0.00 | 0.00 | 52 | 1014.9 |
| 20260507155123 | 57 | 309 | 2.0 | 6.0 | 0.00 | 0.00 | 0.00 | 51 | 1015.2 |
| 20260507154519 | 55 | 273 | 3.0 | 6.0 | 0.00 | 0.00 | 0.00 | 50 | 1015.2 |
| 20260507153911 | 56 | 342 | 3.0 | 4.0 | 0.00 | 0.00 | 0.00 | 50 | 1015.2 |
| 20260507153315 | 55 | 300 | 5.0 | 5.0 | 0.00 | 0.00 | 0.00 | 54 | 1015.5 |
| 20260507152750 | 56 | 40 | 2.0 | 8.0 | 0.00 | 0.00 | 0.00 | 50 | 1015.5 |
| 20260507151534 | 55 | 266 | 2.0 | 5.0 | 0.00 | 0.00 | 0.00 | 55 | 1015.2 |
| 20260507150347 | 56 | 183 | 2.0 | 5.0 | 0.00 | 0.00 | 0.00 | 59 | 1015.2 |
| 20260507145715 | 54 | 305 | 0.0 | 3.0 | 0.00 | 0.00 | 0.00 | 57 | 1015.5 |
| 20260507145111 | 55 | 274 | 0.0 | 3.0 | 0.00 | 0.00 | 0.00 | 58 | 1015.5 |
| 20260507144515 | 56 | 2 | 4.0 | 6.0 | 0.00 | 0.00 | 0.00 | 57 | 1015.5 |
| 20260507143939 | 55 | 226 | 2.0 | 8.0 | 0.00 | 0.00 | 0.00 | 60 | 1015.9 |
| 20260507143320 | 56 | 311 | 4.0 | 5.0 | 0.00 | 0.00 | 0.00 | 56 | 1015.5 |
| 20260507142123 | 56 | 53 | 2.0 | 3.0 | 0.00 | 0.00 | 0.00 | 55 | 1015.5 |
| 20260507141517 | 56 | 328 | 2.0 | 2.0 | 0.00 | 0.00 | 0.00 | 58 | 1015.9 |
| 20260507140926 | 55 | 314 | 1.0 | 6.0 | 0.00 | 0.00 | 0.00 | 60 | 1015.9 |
| 20260507140342 | 54 | 242 | 2.0 | 4.0 | 0.00 | 0.00 | 0.00 | 59 | 1015.9 |
| 20260507135143 | 55 | 274 | 2.0 | 4.0 | 0.00 | 0.00 | 0.00 | 59 | 1016.2 |
| 20260507134519 | 55 | 15 | 2.0 | 4.0 | 0.00 | 0.00 | 0.00 | 62 | 1016.2 |
| 20260507133319 | 55 | 43 | 2.0 | 6.0 | 0.00 | 0.00 | 0.00 | 59 | 1016.2 |
| 20260507132743 | 55 | 45 | 3.0 | 3.0 | 0.00 | 0.00 | 0.00 | 63 | 1016.2 |
| 20260507132122 | 55 | 36 | 2.0 | 3.0 | 0.00 | 0.00 | 0.00 | 60 | 1016.5 |
| 20260507130911 | 52 | 169 | 1.0 | 2.0 | 0.00 | 0.00 | 0.00 | 72 | 1016.2 |
| 20260507130311 | 52 | 182 | 3.0 | 3.0 | 0.00 | 0.00 | 0.00 | 80 | 1016.2 |
| 20260507124550 | 50 | 153 | 2.0 | 5.0 | 0.00 | 0.00 | 0.00 | 82 | 1016.2 |
| 20260507123943 | 50 | 171 | 2.0 | 2.0 | 0.00 | 0.00 | 0.00 | 80 | 1016.2 |
| 20260507123343 | 50 | 162 | 1.0 | 2.0 | 0.00 | 0.00 | 0.00 | 81 | 1016.2 |
| 20260507122748 | 50 | 162 | 2.0 | 3.0 | 0.00 | 0.00 | 0.00 | 80 | 1016.2 |
| 20260507122127 | 50 | 297 | 0.0 | 0.0 | 0.00 | 0.00 | 0.00 | 84 | 1016.2 |
| 20260507120340 | 48 | 134 | 2.0 | 2.0 | 0.00 | 0.00 | 0.00 | 88 | 1016.2 |
| 20260507115712 | 47 | 105 | 2.0 | 2.0 | 0.00 | 0.00 | 0.00 | 92 | 1016.5 |
| 20260507115146 | 47 | 134 | 1.0 | 2.0 | 0.00 | 0.00 | 0.00 | 93 | 1016.5 |
| 20260507114527 | 46 | 123 | 0.0 | 2.0 | 0.00 | 0.00 | 0.00 | 95 | 1016.2 |
| 20260507113916 | 46 | 115 | 1.0 | 2.0 | 0.00 | 0.00 | 0.00 | 97 | 1016.2 |
| 20260507113326 | 45 | 96 | 0.0 | 2.0 | 0.00 | 0.00 | 0.00 | 98 | 1016.2 |
| 20260507112752 | 45 | 77 | 0.0 | 2.0 | 0.00 | 0.00 | 0.00 | 99 | 1016.2 |
| 20260507111513 | 44 | 124 | 0.0 | 2.0 | 0.00 | 0.00 | 0.00 | 99 | 1015.9 |
| 20260507110940 | 44 | 125 | 1.0 | 2.0 | 0.00 | 0.00 | 0.00 | 99 | 1015.9 |
| 20260507110320 | 44 | 117 | 0.0 | 0.0 | 0.00 | 0.00 | 0.00 | 99 | 1015.5 |
| 20260507105717 | 44 | 41 | 0.0 | 1.0 | 0.00 | 0.00 | 0.00 | 99 | 1015.5 |
| 20260507105143 | 44 | 106 | 2.0 | 2.0 | 0.00 | 0.00 | 0.00 | 98 | 1015.5 |
| 20260507104546 | 44 | 113 | 0.0 | 2.0 | 0.00 | 0.00 | 0.00 | 97 | 1015.5 |
| 20260507103320 | 44 | 138 | 0.0 | 1.0 | 0.00 | 0.00 | 0.00 | 96 | 1015.5 |
| 20260507102729 | 44 | 58 | 0.0 | 1.0 | 0.00 | 0.00 | 0.00 | 96 | 1015.5 |
| 20260507101525 | 44 | 123 | 0.0 | 2.0 | 0.00 | 0.00 | 0.00 | 94 | 1015.5 |
| 20260507100912 | 44 | 78 | 0.0 | 2.0 | 0.00 | 0.00 | 0.00 | 94 | 1015.2 |
| 20260507100332 | 44 | 68 | 0.0 | 1.0 | 0.00 | 0.00 | 0.00 | 95 | 1015.2 |
| 20260507095740 | 44 | 350 | 0.0 | 2.0 | 0.00 | 0.00 | 0.00 | 93 | 1015.2 |
| 20260507095110 | 44 | 122 | 1.0 | 2.0 | 0.00 | 0.00 | 0.00 | 93 | 1015.2 |
| 20260507093930 | 46 | 345 | 0.0 | 2.0 | 0.00 | 0.00 | 0.00 | 90 | 1015.2 |
| 20260507093344 | 46 | 90 | 1.0 | 2.0 | 0.00 | 0.00 | 0.00 | 87 | 1015.2 |
| 20260507092744 | 46 | 19 | 1.0 | 2.0 | 0.00 | 0.00 | 0.00 | 87 | 1015.2 |
| 20260507092130 | 46 | 124 | 0.0 | 1.0 | 0.00 | 0.00 | 0.00 | 86 | 1015.5 |
| 20260507091510 | 46 | 95 | 0.0 | 2.0 | 0.00 | 0.00 | 0.00 | 87 | 1015.2 |
| 20260507090939 | 46 | 121 | 1.0 | 2.0 | 0.00 | 0.00 | 0.00 | 87 | 1015.2 |
| 20260507090318 | 47 | 41 | 1.0 | 1.0 | 0.00 | 0.00 | 0.00 | 89 | 1014.9 |
| 20260507085715 | 46 | 331 | 1.0 | 2.0 | 0.00 | 0.00 | 0.00 | 88 | 1014.9 |
| 20260507085109 | 46 | 333 | 2.0 | 2.0 | 0.00 | 0.00 | 0.00 | 95 | 1014.9 |
| 20260507084541 | 46 | 342 | 1.0 | 2.0 | 0.00 | 0.00 | 0.00 | 95 | 1015.2 |
| 20260507083925 | 46 | 354 | 0.0 | 2.0 | 0.00 | 0.00 | 0.00 | 95 | 1015.2 |
| 20260507083327 | 46 | 9 | 2.0 | 3.0 | 0.00 | 0.00 | 0.00 | 94 | 1015.2 |
| 20260507082121 | 46 | 58 | 0.0 | 0.0 | 0.00 | 0.00 | 0.00 | 91 | 1015.5 |
| 20260507081530 | 47 | 123 | 1.0 | 2.0 | 0.00 | 0.00 | 0.00 | 91 | 1015.2 |
| 20260507080917 | 47 | 123 | 0.0 | 0.0 | 0.00 | 0.00 | 0.00 | 88 | 1015.2 |
| 20260507080337 | 47 | 305 | 0.0 | 2.0 | 0.00 | 0.00 | 0.00 | 86 | 1015.2 |
| 20260507075716 | 48 | 211 | 0.0 | 1.0 | 0.00 | 0.00 | 0.00 | 85 | 1015.2 |
| 20260507075135 | 48 | 109 | 0.0 | 1.0 | 0.00 | 0.00 | 0.00 | 86 | 1015.2 |
| 20260507074541 | 48 | 37 | 0.0 | 1.0 | 0.00 | 0.00 | 0.00 | 83 | 1015.2 |
| 20260507073952 | 48 | 19 | 1.0 | 1.0 | 0.00 | 0.00 | 0.00 | 83 | 1015.2 |
| 20260507073328 | 49 | 42 | 0.0 | 0.0 | 0.00 | 0.00 | 0.00 | 83 | 1015.2 |
| 20260507072748 | 49 | 4 | 0.0 | 0.0 | 0.00 | 0.00 | 0.00 | 82 | 1015.2 |
| 20260507072116 | 49 | 301 | 1.0 | 2.0 | 0.00 | 0.00 | 0.00 | 82 | 1015.2 |
| 20260507071537 | 49 | 294 | 0.0 | 2.0 | 0.00 | 0.00 | 0.00 | 82 | 1015.2 |
| 20260507070310 | 49 | 339 | 0.0 | 2.0 | 0.00 | 0.00 | 0.00 | 80 | 1015.5 |
| 20260507065753 | 49 | 348 | 0.0 | 2.0 | 0.00 | 0.00 | 0.00 | 83 | 1015.5 |
| 20260507064514 | 49 | 312 | 0.0 | 2.0 | 0.00 | 0.00 | 0.00 | 84 | 1015.5 |
| 20260507063913 | 49 | 319 | 2.0 | 2.0 | 0.00 | 0.00 | 0.00 | 84 | 1015.5 |
| 20260507063347 | 49 | 298 | 3.0 | 3.0 | 0.00 | 0.00 | 0.00 | 85 | 1015.2 |